Location: Unspecified
(41.5516°N, 88.1098°W)
Time: 17:08:58
(UTC-05:00)

Resurs 1-4 Rocket - Visible Passes

Search period start: 22 May 2015 00:00
Search period end: 01 June 2015 00:00
Orbit: 800 x 814 km, 98.4° (Epoch: 21 May)

Date Brightness Start Highest point End Pass type
(mag) Time Alt. Az. Time Alt. Az. Time Alt. Az.
22 May 3.1 03:59:47 10° NNE 04:04:53 46° E 04:10:00 10° S visible
23 May 3.9 03:35:44 10° NE 03:40:13 28° E 03:44:48 10° SSE visible
24 May 4.5 03:12:12 10° NE 03:15:27 17° E 03:18:55 10° SE visible
24 May 2.3 04:50:34 10° N 04:55:49 62° WNW 05:01:03 10° SSW visible
25 May 2.2 04:26:02 10° NNE 04:31:22 81° ESE 04:36:43 10° S visible
26 May 3.0 04:01:41 10° NNE 04:06:50 49° E 04:11:59 10° S visible
27 May 3.8 03:37:36 10° NE 03:42:11 29° E 03:46:49 10° SSE visible
28 May 4.5 03:13:59 10° NE 03:17:25 18° E 03:21:02 10° SE visible
29 May 2.2 04:27:57 10° NNE 04:33:19 85° ESE 04:38:39 10° SSW visible
30 May 2.9 04:03:36 10° NNE 04:08:47 51° E 04:13:58 10° S visible
31 May 3.7 03:39:29 10° NE 03:44:09 31° E 03:48:51 10° SSE visible
